Date String (YYYY-MM-DD hh:mm:ss) UTC,Instrument flags,Ambient pressure (hPa),Sample flow (lpm),Bypass flow (lpm),Sample temperature (°C),Ambient temperature (°C),ASC tube jacket temperature (°C),LED temperature (°C),Box temperature (°C),Sample RH (%),Span deviation,Mass concentration (μg/m³),Mass concentration (μg/m³),Mass concentration (μg/m³)
DateTimeUTC,F1_M11,P_M11,Q1_M11,Q2_M11,T1_M11,T2_M11,T3_M11,T4_M11,T5_M11,U1_M11,ZSPAN_M11,X0_M11,X2_M11,X1_M11
2022-11-21 21:00:00,,0828.7,5.00,0.00,28.1,27.0,00.0,36.9,29.9,07.9,0004.6,0011.10,0008.02,0007.61
2022-11-21 21:01:00,,0828.9,5.00,0.00,28.2,27.0,00.0,36.9,29.9,08.0,0004.6,0010.84,0007.89,0007.51
2022-11-21 21:02:00,,0829.0,5.00,0.00,28.2,27.0,00.0,36.9,30.0,07.9,0004.3,0010.79,0007.73,0007.36
2022-11-21 21:03:00,,0828.9,5.00,0.00,28.2,27.0,00.0,37.0,30.0,07.6,0004.3,0011.14,0007.61,0007.23
2022-11-21 21:04:00,,0829.0,5.00,0.00,28.2,27.1,00.0,37.0,30.0,07.4,0004.6,0011.01,0007.50,0007.12
2022-11-21 21:05:00,,0829.0,5.00,0.00,28.2,27.1,00.0,37.0,30.0,07.0,0005.1,0010.85,0007.35,0006.97
2022-11-21 21:06:00,,0829.0,5.00,0.00,28.2,27.1,00.0,37.0,30.0,06.6,0005.2,0010.66,0007.15,0006.76
2022-11-21 21:07:00,,0828.7,5.01,0.00,28.2,27.1,00.0,37.0,30.0,06.6,0001.4,0010.63,0006.99,0006.57
2022-11-21 21:08:00,,0829.1,5.00,0.00,28.2,27.1,00.0,37.0,30.0,06.4,0005.3,0010.91,0006.78,0006.35
2022-11-21 21:09:00,,0829.0,5.00,0.00,28.3,27.1,00.0,37.0,30.1,07.5,0002.7,0011.26,0006.62,0006.19
2022-11-21 21:10:00,,0828.7,5.00,0.00,28.3,27.1,00.0,37.0,30.1,07.6,0000.0,0012.00,0006.46,0006.05
2022-11-21 21:11:00,,0828.6,4.99,0.00,28.3,27.1,00.0,37.0,30.1,07.8,0000.0,0012.31,0006.31,0005.89
2022-11-21 21:12:00,,0828.6,5.00,0.00,28.3,27.2,00.0,37.1,30.1,07.4,0000.0,0012.43,0006.14,0005.71
2022-11-21 21:13:00,,0828.5,4.99,0.00,28.3,27.2,00.0,37.1,30.1,07.4,0000.0,0012.18,0005.97,0005.52
2022-11-21 21:14:00,,0828.6,5.00,0.00,28.3,27.2,00.0,37.1,30.1,08.1,0000.0,0011.55,0005.82,0005.39
2022-11-21 21:15:00,,0828.5,5.00,0.00,28.3,27.2,00.0,37.1,30.2,08.7,0000.0,0011.46,0005.73,0005.30
2022-11-21 21:16:00,,0828.5,5.00,0.00,28.4,27.2,00.0,37.1,30.2,08.1,0000.0,0011.62,0005.70,0005.27
2022-11-21 21:17:00,,0828.5,5.00,0.00,28.4,27.2,00.0,37.1,30.2,08.0,0000.0,0011.85,0005.76,0005.33
2022-11-21 21:18:00,,0828.6,5.00,0.00,28.4,27.3,00.0,37.1,30.2,08.1,0000.0,0011.95,0005.88,0005.44
2022-11-21 21:19:00,,0828.5,5.01,0.00,28.4,27.3,00.0,37.2,30.2,08.2,0000.0,0011.73,0006.01,0005.59
2022-11-21 21:20:00,,0828.5,5.01,0.00,28.4,27.3,00.0,37.2,30.2,08.5,0000.0,0011.24,0006.17,0005.75
2022-11-21 21:21:00,,0828.5,5.01,0.00,28.4,27.3,00.0,37.2,30.2,08.4,0000.0,0010.63,0006.33,0005.91
2022-11-21 21:22:00,,0828.5,5.00,0.00,28.4,27.3,00.0,37.2,30.2,08.3,0000.0,0010.26,0006.51,0006.08
2022-11-21 21:23:00,,0828.5,4.99,0.00,28.4,27.3,00.0,37.2,30.2,07.9,0000.0,0010.14,0006.67,0006.24
2022-11-21 21:24:00,,0828.5,4.99,0.00,28.5,27.3,00.0,37.2,30.2,07.9,0000.0,0010.25,0006.85,0006.42
2022-11-21 21:25:00,,0828.5,5.00,0.00,28.5,27.3,00.0,37.2,30.3,07.0,0002.9,0010.36,0006.98,0006.57
2022-11-21 21:26:00,,0828.5,5.00,0.00,28.5,27.4,00.0,37.3,30.3,06.7,0005.5,0010.57,0007.06,0006.67
2022-11-21 21:27:00,,0828.5,5.00,0.00,28.5,27.4,00.0,37.3,30.3,06.9,0006.7,0010.98,0007.19,0006.79
2022-11-21 21:28:00,,0828.5,5.00,0.00,28.5,27.4,00.0,37.3,30.3,06.8,0006.7,0010.93,0007.31,0006.90
2022-11-21 21:29:00,,0828.5,4.99,0.00,28.5,27.4,00.0,37.3,30.3,07.1,0007.0,0010.89,0007.35,0006.97
2022-11-21 21:30:00,,0828.5,5.00,0.00,28.5,27.4,00.0,37.3,30.3,07.5,0007.0,0010.88,0007.39,0007.01
2022-11-21 21:31:00,,0828.5,5.00,0.00,28.5,27.4,00.0,37.3,30.4,07.5,0006.9,0010.93,0007.42,0007.01
2022-11-21 21:32:00,,0828.4,5.00,0.00,28.6,27.4,00.0,37.3,30.3,07.5,0007.2,0010.83,0007.34,0006.94
2022-11-21 21:33:00,,0828.5,5.00,0.00,28.6,27.4,00.0,37.3,30.4,07.2,0007.4,0010.69,0007.23,0006.85
2022-11-21 21:34:00,,0828.5,5.01,0.00,28.6,27.5,00.0,37.4,30.4,07.5,0007.4,0010.61,0007.17,0006.79
2022-11-21 21:35:00,,0828.5,5.01,0.00,28.6,27.5,00.0,37.4,30.4,07.4,0008.0,0010.53,0007.14,0006.77
2022-11-21 21:36:00,,0828.5,5.00,0.00,28.6,27.5,00.0,37.4,30.4,07.0,0008.3,0010.46,0007.07,0006.71
2022-11-21 21:37:00,,0828.5,5.00,0.00,28.6,27.5,00.0,37.4,30.4,06.9,0008.3,0010.78,0007.03,0006.68
2022-11-21 21:38:00,,0828.5,5.00,0.00,28.6,27.5,00.0,37.4,30.4,07.0,0008.1,0010.63,0007.02,0006.68
2022-11-21 21:39:00,,0828.5,5.00,0.00,28.7,27.5,00.0,37.4,30.5,07.4,0008.0,0010.52,0007.03,0006.69
2022-11-21 21:40:00,,0828.6,5.00,0.00,28.7,27.5,00.0,37.4,30.5,07.7,0008.5,0010.53,0007.06,0006.72
2022-11-21 21:41:00,,0828.4,5.00,0.00,28.7,27.6,00.0,37.4,30.5,07.9,0008.3,0010.68,0007.15,0006.77
2022-11-21 21:42:00,,0828.5,5.00,0.00,28.7,27.6,00.0,37.5,30.5,07.6,0008.5,0010.75,0007.23,0006.87
2022-11-21 21:43:00,,0828.5,4.99,0.00,28.7,27.6,00.0,37.5,30.5,07.7,0008.7,0010.93,0007.37,0007.01
2022-11-21 21:44:00,,0828.5,5.00,0.00,28.7,27.6,00.0,37.5,30.5,07.6,0008.2,0011.20,0007.56,0007.19
2022-11-21 21:45:00,,0828.5,5.01,0.00,28.7,27.6,00.0,37.5,30.5,07.7,0007.9,0011.47,0007.75,0007.35
2022-11-21 21:46:00,,0828.5,5.01,0.00,28.8,27.6,00.0,37.5,30.6,07.7,0007.6,0011.80,0007.86,0007.48
2022-11-21 21:47:00,,0828.5,5.00,0.00,28.8,27.6,00.0,37.5,30.6,07.8,0007.1,0012.03,0008.07,0007.67
2022-11-21 21:48:00,,0828.5,4.99,0.00,28.8,27.6,00.0,37.5,30.6,07.6,0007.1,0012.00,0008.28,0007.88
2022-11-21 21:49:00,,0828.5,5.00,0.00,28.8,27.6,00.0,37.5,30.6,07.9,0006.7,0011.84,0008.48,0008.08
2022-11-21 21:50:00,,0828.5,5.00,0.00,28.8,27.6,00.0,37.6,30.6,07.9,0006.5,0012.42,0008.67,0008.27
2022-11-21 21:51:00,,0828.5,5.01,0.00,28.8,27.7,00.0,37.6,30.6,07.8,0006.4,0013.29,0008.88,0008.47
2022-11-21 21:52:00,,0828.4,5.00,0.00,28.8,27.7,00.0,37.6,30.6,07.8,0006.6,0013.92,0009.03,0008.62
2022-11-21 21:53:00,,0828.5,4.99,0.00,28.8,27.7,00.0,37.6,30.6,07.7,0006.7,0014.54,0009.15,0008.73
2022-11-21 21:54:00,,0828.4,5.00,0.00,28.9,27.7,00.0,37.6,30.7,07.7,0006.1,0014.80,0009.20,0008.77
2022-11-21 21:55:00,,0828.4,5.00,0.00,28.9,27.7,00.0,37.6,30.7,06.9,0005.6,0015.12,0009.22,0008.78
2022-11-21 21:56:00,,0828.4,5.00,0.00,28.9,27.7,00.0,37.6,30.7,06.6,0005.7,0015.13,0009.22,0008.79
2022-11-21 21:57:00,,0828.4,5.00,0.00,28.9,27.7,00.0,37.7,30.7,06.5,0005.9,0015.13,0009.26,0008.79
2022-11-21 21:58:00,,0828.4,5.01,0.00,28.9,27.7,00.0,37.7,30.7,06.4,0006.5,0015.04,0009.17,0008.69
2022-11-21 21:59:00,,0828.5,5.00,0.00,28.9,27.8,00.0,37.7,30.7,06.3,0006.9,0015.11,0009.06,0008.58
